QPF
0.00 0.00 0.01 0.01 0.01 0.01 0.02 0.02 0.03 0.02 0.02 0.04 0.05 0.05 0.04 0.04 0.03 0.02 0.02 0.03 0.03 0.02 0.04 0.05 0.06 0.08 0.09 0.09 0.11 0.13 0.14 0.11 0.11 0.11 0.12 0.10 0.08 0.07 0.06 0.05 0.04 0.02 0.02
0.00 0.00 0.00 0.01 0.01 0.01 0.01 0.01 0.02 0.02 0.02 0.03 0.04 0.04 0.02 0.02 0.02 0.02 0.03 0.03 0.03 0.03 0.04 0.06 0.07 0.09 0.10 0.09 0.10 0.11 0.11 0.10 0.11 0.12 0.17 0.18 0.16 0.10 0.07 0.05 0.04 0.03 0.03
0.00 0.00 0.00 0.00 0.00 0.01 0.01 0.01 0.02 0.02 0.02 0.02 0.02 0.03 0.04 0.04 0.05 0.03 0.04 0.03 0.02 0.02 0.03 0.06 0.06 0.07 0.07 0.08 0.09 0.10 0.10 0.10 0.10 0.10 0.14 0.17 0.19 0.16 0.11 0.07 0.05 0.05 0.07
0.00 0.00 0.00 0.00 0.00 0.01 0.01 0.01 0.02 0.02 0.02 0.03 0.04 0.04 0.05 0.05 0.04 0.03 0.03 0.03 0.02 0.01 0.02 0.03 0.04 0.05 0.05 0.06 0.06 0.09 0.11 0.12 0.10 0.11 0.12 0.11 0.13 0.14 0.14 0.09 0.04 0.04 0.04
0.00 0.00 0.00 0.00 0.00 0.00 0.00 0.00 0.02 0.03 0.02 0.02 0.03 0.05 0.06 0.05 0.04 0.04 0.04 0.02 0.02 0.01 0.01 0.03 0.05 0.05 0.05 0.06 0.06 0.07 0.09 0.10 0.09 0.10 0.09 0.07 0.09 0.10 0.13 0.13 0.08 0.05 0.02
0.00 0.00 0.00 0.00 0.00 0.00 0.00 0.00 0.01 0.01 0.01 0.01 0.01 0.03 0.04 0.05 0.06 0.06 0.05 0.04 0.03 0.02 0.02 0.04 0.04 0.05 0.06 0.06 0.06 0.07 0.07 0.08 0.09 0.09 0.08 0.08 0.08 0.10 0.11 0.11 0.11 0.09 0.04
0.00 0.00 0.00 0.00 0.00 0.00 0.00 0.00 0.01 0.01 0.01 0.01 0.01 0.02 0.03 0.04 0.03 0.04 0.04 0.03 0.02 0.03 0.04 0.05 0.04 0.05 0.05 0.05 0.06 0.07 0.07 0.07 0.07 0.06 0.07 0.07 0.07 0.08 0.09 0.08 0.08 0.10 0.08
0.00 0.00 0.00 0.00 0.00 0.00 0.00 0.00 0.01 0.01 0.01 0.01 0.01 0.02 0.03 0.02 0.02 0.03 0.03 0.03 0.02 0.02 0.02 0.03 0.03 0.03 0.03 0.03 0.05 0.05 0.05 0.06 0.05 0.05 0.07 0.06 0.05 0.05 0.06 0.07 0.09 0.09 0.08
0.00 0.00 0.00 0.01 0.00 0.00 0.00 0.00 0.01 0.01 0.02 0.02 0.01 0.01 0.02 0.02 0.02 0.03 0.03 0.02 0.02 0.02 0.02 0.02 0.02 0.02 0.03 0.03 0.04 0.04 0.05 0.06 0.05 0.05 0.06 0.05 0.04 0.04 0.03 0.04 0.07 0.09 0.07
0.00 0.00 0.00 0.00 0.00 0.00 0.00 0.00 0.01 0.02 0.03 0.03 0.02 0.02 0.03 0.03 0.04 0.05 0.03 0.02 0.02 0.02 0.02 0.02 0.02 0.03 0.03 0.04 0.05 0.05 0.06 0.08 0.07 0.05 0.05 0.05 0.03 0.02 0.02 0.03 0.05 0.08 0.08
0.00 0.00 0.00 0.00 0.00 0.00 0.00 0.00 0.01 0.02 0.02 0.02 0.02 0.03 0.05 0.04 0.04 0.05 0.05 0.04 0.03 0.03 0.03 0.02 0.02 0.03 0.04 0.05 0.05 0.05 0.07 0.07 0.06 0.06 0.06 0.05 0.04 0.04 0.03 0.04 0.06 0.07 0.08
0.00 0.00 0.01 0.01 0.00 0.00 0.00 0.01 0.01 0.02 0.02 0.02 0.02 0.03 0.04 0.05 0.05 0.06 0.06 0.06 0.05 0.04 0.04 0.03 0.03 0.03 0.04 0.05 0.06 0.06 0.06 0.07 0.07 0.07 0.08 0.07 0.06 0.05 0.04 0.04 0.05 0.06 0.07
0.00 0.00 0.00 0.00 0.01 0.01 0.01 0.01 0.01 0.01 0.01 0.02 0.02 0.03 0.03 0.03 0.04 0.05 0.05 0.04 0.04 0.04 0.04 0.05 0.04 0.04 0.05 0.07 0.09 0.08 0.07 0.08 0.08 0.07 0.06 0.06 0.07 0.06 0.05 0.04 0.04 0.06 0.06
0.00 0.00 0.00 0.00 0.01 0.01 0.01 0.00 0.00 0.00 0.00 0.01 0.01 0.02 0.02 0.03 0.04 0.05 0.05 0.05 0.05 0.05 0.06 0.05 0.05 0.05 0.06 0.07 0.07 0.07 0.08 0.08 0.08 0.07 0.06 0.06 0.07 0.07 0.05 0.04 0.04 0.06 0.07
0.00 0.00 0.00 0.00 0.00 0.00 0.00 0.00 0.00 0.00 0.00 0.00 0.00 0.01 0.01 0.01 0.02 0.03 0.04 0.04 0.04 0.04 0.05 0.05 0.05 0.07 0.06 0.05 0.05 0.06 0.06 0.06 0.05 0.05 0.06 0.07 0.08 0.07 0.05 0.04 0.04 0.06 0.06
0.00 0.00 0.00 0.00 0.00 0.00 0.00 0.00 0.00 0.00 0.00 0.01 0.01 0.01 0.01 0.02 0.02 0.03 0.03 0.03 0.03 0.03 0.04 0.04 0.04 0.05 0.04 0.04 0.04 0.04 0.04 0.04 0.04 0.05 0.06 0.07 0.07 0.06 0.05 0.04 0.02 0.03 0.05
0.00 0.00 0.00 0.00 0.00 0.00 0.00 0.00 0.00 0.00 0.01 0.01 0.01 0.01 0.02 0.03 0.03 0.03 0.03 0.03 0.04 0.04 0.05 0.05 0.05 0.04 0.03 0.03 0.02 0.02 0.03 0.04 0.05 0.07 0.09 0.10 0.09 0.07 0.05 0.04 0.03 0.02 0.02
0.00 0.00 0.00 0.01 0.01 0.01 0.00 0.00 0.00 0.01 0.01 0.01 0.01 0.01 0.02 0.03 0.04 0.04 0.04 0.04 0.05 0.05 0.05 0.04 0.04 0.04 0.02 0.02 0.02 0.02 0.08 0.12 0.11 0.12 0.14 0.15 0.11 0.08 0.09 0.08 0.06 0.05 0.05
0.00 0.01 0.01 0.01 0.01 0.02 0.01 0.01 0.01 0.01 0.01 0.01 0.01 0.01 0.01 0.03 0.04 0.05 0.05 0.05 0.05 0.05 0.05 0.04 0.03 0.03 0.03 0.03 0.02 0.02 0.06 0.08 0.07 0.05 0.05 0.05 0.05 0.05 0.05 0.06 0.06 0.06 0.07
0.00 0.01 0.01 0.01 0.01 0.02 0.02 0.02 0.02 0.03 0.02 0.01 0.01 0.01 0.02 0.04 0.05 0.05 0.06 0.05 0.04 0.04 0.05 0.04 0.04 0.04 0.03 0.03 0.02 0.01 0.01 0.03 0.03 0.03 0.03 0.03 0.03 0.04 0.05 0.05 0.06 0.07 0.07
0.01 0.01 0.01 0.01 0.01 0.01 0.02 0.02 0.02 0.02 0.02 0.02 0.02 0.02 0.04 0.05 0.06 0.06 0.06 0.05 0.04 0.03 0.03 0.04 0.03 0.03 0.02 0.02 0.02 0.01 0.01 0.01 0.02 0.02 0.02 0.03 0.04 0.05 0.05 0.05 0.06 0.06 0.05
0.02 0.02 0.02 0.02 0.02 0.02 0.02 0.02 0.02 0.02 0.03 0.03 0.04 0.04 0.05 0.09 0.10 0.07 0.05 0.06 0.04 0.03 0.03 0.03 0.03 0.02 0.02 0.02 0.01 0.01 0.02 0.02 0.02 0.02 0.02 0.02 0.03 0.04 0.05 0.04 0.04 0.05 0.05
0.05 0.03 0.03 0.03 0.03 0.03 0.03 0.03 0.04 0.04 0.04 0.05 0.06 0.07 0.08 0.09 0.10 0.08 0.06 0.06 0.04 0.03 0.02 0.02 0.02 0.02 0.02 0.02 0.01 0.01 0.01 0.01 0.01 0.02 0.01 0.02 0.03 0.03 0.04 0.03 0.03 0.05 0.05
0.04 0.05 0.05 0.06 0.09 0.05 0.04 0.04 0.04 0.05 0.06 0.06 0.05 0.06 0.06 0.07 0.08 0.08 0.07 0.05 0.03 0.02 0.02 0.01 0.01 0.01 0.01 0.01 0.01 0.01 0.01 0.01 0.01 0.01 0.01 0.01 0.02 0.02 0.03 0.04 0.05 0.05 0.05
0.05 0.05 0.05 0.05 0.07 0.06 0.07 0.07 0.07 0.06 0.07 0.08 0.07 0.06 0.09 0.10 0.10 0.10 0.07 0.05 0.04 0.03 0.02 0.01 0.01 0.01 0.01 0.01 0.01 0.01 0.01 0.01 0.01 0.01 0.01 0.01 0.01 0.02 0.02 0.02 0.03 0.04 0.05
0.08 0.08 0.06 0.06 0.06 0.07 0.07 0.06 0.06 0.06 0.06 0.07 0.09 0.06 0.06 0.08 0.10 0.10 0.09 0.08 0.06 0.06 0.05 0.03 0.01 0.01 0.01 0.01 0.01 0.01 0.01 0.02 0.02 0.01 0.01 0.02 0.02 0.02 0.02 0.02 0.02 0.02 0.03
MSLP
1007.73 1008.07 1008.43 1008.79 1009.15 1009.51 1009.87 1010.23 1010.59 1010.94 1011.26 1011.55 1011.80 1012.00 1012.17 1012.32 1012.47 1012.63 1012.83 1013.07 1013.36 1013.69 1014.04 1014.40 1014.76 1015.10 1015.42 1015.72 1016.00 1016.26 1016.49 1016.69 1016.84 1016.94 1016.97 1016.93 1016.80 1016.60 1016.34 1016.05 1015.77 1015.52 1015.35
1007.41 1007.78 1008.16 1008.52 1008.88 1009.23 1009.58 1009.94 1010.32 1010.70 1011.06 1011.40 1011.68 1011.91 1012.07 1012.18 1012.26 1012.34 1012.45 1012.60 1012.82 1013.09 1013.42 1013.79 1014.17 1014.54 1014.89 1015.21 1015.48 1015.73 1015.94 1016.13 1016.28 1016.39 1016.44 1016.44 1016.36 1016.20 1015.98 1015.70 1015.41 1015.12 1014.88
1006.85 1007.23 1007.61 1007.99 1008.36 1008.72 1009.08 1009.47 1009.88 1010.32 1010.75 1011.16 1011.51 1011.77 1011.95 1012.04 1012.06 1012.06 1012.08 1012.14 1012.27 1012.49 1012.79 1013.15 1013.53 1013.92 1014.28 1014.61 1014.88 1015.11 1015.31 1015.47 1015.61 1015.73 1015.82 1015.87 1015.86 1015.77 1015.62 1015.39 1015.12 1014.82 1014.54
1006.07 1006.43 1006.81 1007.19 1007.57 1007.95 1008.34 1008.77 1009.24 1009.75 1010.27 1010.76 1011.19 1011.51 1011.72 1011.81 1011.81 1011.75 1011.69 1011.67 1011.73 1011.88 1012.14 1012.48 1012.86 1013.26 1013.63 1013.96 1014.23 1014.45 1014.62 1014.77 1014.90 1015.04 1015.16 1015.27 1015.33 1015.34 1015.27 1015.12 1014.90 1014.61 1014.30
1005.16 1005.48 1005.84 1006.22 1006.60 1006.99 1007.41 1007.88 1008.41 1008.99 1009.59 1010.17 1010.68 1011.08 1011.34 1011.46 1011.45 1011.36 1011.25 1011.18 1011.17 1011.28 1011.50 1011.81 1012.18 1012.58 1012.95 1013.28 1013.55 1013.76 1013.92 1014.06 1014.20 1014.35 1014.51 1014.67 1014.81 1014.91 1014.93 1014.86 1014.70 1014.45 1014.13
1004.29 1004.55 1004.87 1005.22 1005.59 1005.98 1006.40 1006.89 1007.46 1008.08 1008.74 1009.40 1009.98 1010.46 1010.78 1010.94 1010.96 1010.88 1010.75 1010.65 1010.61 1010.68 1010.87 1011.16 1011.52 1011.91 1012.28 1012.62 1012.89 1013.10 1013.26 1013.40 1013.54 1013.71 1013.90 1014.11 1014.32 1014.49 1014.59 1014.60 1014.50 1014.28 1013.98
1003.64 1003.83 1004.10 1004.41 1004.73 1005.09 1005.49 1005.96 1006.52 1007.15 1007.83 1008.52 1009.15 1009.68 1010.07 1010.29 1010.35 1010.30 1010.20 1010.10 1010.05 1010.11 1010.27 1010.55 1010.89 1011.28 1011.65 1011.99 1012.26 1012.48 1012.66 1012.81 1012.97 1013.15 1013.37 1013.61 1013.86 1014.08 1014.24 1014.31 1014.26 1014.09 1013.82
1003.38 1003.50 1003.71 1003.95 1004.21 1004.50 1004.83 1005.24 1005.74 1006.33 1006.98 1007.65 1008.30 1008.86 1009.29 1009.56 1009.69 1009.69 1009.64 1009.57 1009.55 1009.60 1009.76 1010.02 1010.36 1010.73 1011.10 1011.44 1011.73 1011.96 1012.15 1012.32 1012.50 1012.70 1012.93 1013.19 1013.46 1013.71 1013.90 1014.00 1013.99 1013.87 1013.63
1003.59 1003.66 1003.79 1003.96 1004.14 1004.33 1004.56 1004.86 1005.26 1005.75 1006.32 1006.94 1007.55 1008.10 1008.56 1008.88 1009.06 1009.14 1009.15 1009.14 1009.15 1009.23 1009.40 1009.65 1009.97 1010.32 1010.68 1011.02 1011.32 1011.56 1011.78 1011.97 1012.17 1012.38 1012.62 1012.87 1013.14 1013.38 1013.57 1013.69 1013.70 1013.61 1013.42
1004.24 1004.29 1004.37 1004.46 1004.53 1004.62 1004.73 1004.90 1005.16 1005.52 1005.98 1006.50 1007.05 1007.56 1008.02 1008.37 1008.61 1008.76 1008.84 1008.90 1008.97 1009.08 1009.25 1009.50 1009.79 1010.13 1010.46 1010.79 1011.08 1011.34 1011.57 1011.79 1012.00 1012.22 1012.45 1012.69 1012.93 1013.14 1013.31 1013.42 1013.44 1013.37 1013.23
1005.24 1005.28 1005.33 1005.35 1005.34 1005.31 1005.30 1005.35 1005.47 1005.70 1006.03 1006.44 1006.90 1007.36 1007.79 1008.16 1008.45 1008.67 1008.82 1008.95 1009.07 1009.22 1009.40 1009.63 1009.90 1010.20 1010.50 1010.80 1011.08 1011.34 1011.57 1011.80 1012.02 1012.24 1012.46 1012.67 1012.87 1013.04 1013.17 1013.24 1013.25 1013.20 1013.09
1006.39 1006.45 1006.47 1006.45 1006.37 1006.27 1006.17 1006.11 1006.12 1006.24 1006.45 1006.76 1007.14 1007.55 1007.95 1008.33 1008.65 1008.92 1009.14 1009.33 1009.51 1009.68 1009.87 1010.08 1010.32 1010.56 1010.82 1011.07 1011.32 1011.56 1011.80 1012.03 1012.25 1012.46 1012.66 1012.84 1012.99 1013.10 1013.17 1013.19 1013.17 1013.12 1013.04
1007.47 1007.57 1007.61 1007.56 1007.46 1007.31 1007.16 1007.05 1007.00 1007.05 1007.20 1007.44 1007.75 1008.11 1008.50 1008.87 1009.22 1009.53 1009.80 1010.04 1010.25 1010.45 1010.64 1010.83 1011.01 1011.20 1011.40 1011.60 1011.80 1012.02 1012.24 1012.46 1012.68 1012.88 1013.06 1013.21 1013.31 1013.35 1013.36 1013.32 1013.25 1013.17 1013.10
1008.35 1008.50 1008.55 1008.52 1008.42 1008.28 1008.14 1008.04 1007.99 1008.04 1008.17 1008.38 1008.67 1009.00 1009.36 1009.73 1010.09 1010.43 1010.73 1011.00 1011.24 1011.45 1011.63 1011.78 1011.93 1012.06 1012.19 1012.33 1012.49 1012.67 1012.86 1013.07 1013.28 1013.48 1013.63 1013.74 1013.79 1013.78 1013.72 1013.61 1013.49 1013.37 1013.28
1008.93 1009.13 1009.22 1009.22 1009.16 1009.08 1009.00 1008.96 1008.98 1009.08 1009.24 1009.48 1009.76 1010.09 1010.44 1010.80 1011.16 1011.50 1011.82 1012.10 1012.35 1012.56 1012.73 1012.85 1012.95 1013.03 1013.10 1013.19 1013.30 1013.44 1013.61 1013.80 1014.00 1014.19 1014.33 1014.41 1014.42 1014.36 1014.24 1014.07 1013.88 1013.71 1013.57
1009.22 1009.46 1009.60 1009.65 1009.66 1009.66 1009.69 1009.76 1009.89 1010.08 1010.32 1010.61 1010.92 1011.26 1011.60 1011.94 1012.29 1012.61 1012.92 1013.20 1013.44 1013.64 1013.80 1013.90 1013.96 1014.00 1014.03 1014.07 1014.14 1014.25 1014.40 1014.58 1014.77 1014.95 1015.08 1015.15 1015.13 1015.03 1014.86 1014.63 1014.38 1014.15 1013.97
1009.28 1009.56 1009.74 1009.85 1009.95 1010.06 1010.21 1010.41 1010.68 1010.98 1011.32 1011.67 1012.03 1012.37 1012.71 1013.03 1013.33 1013.63 1013.91 1014.17 1014.40 1014.59 1014.72 1014.81 1014.86 1014.87 1014.87 1014.89 1014.93 1015.02 1015.15 1015.33 1015.51 1015.69 1015.82 1015.88 1015.85 1015.73 1015.52 1015.25 1014.95 1014.67 1014.42
1009.21 1009.53 1009.75 1009.92 1010.10 1010.32 1010.59 1010.93 1011.32 1011.75 1012.18 1012.60 1012.99 1013.34 1013.65 1013.94 1014.20 1014.46 1014.70 1014.93 1015.13 1015.31 1015.44 1015.53 1015.57 1015.58 1015.58 1015.58 1015.62 1015.69 1015.82 1015.98 1016.17 1016.34 1016.48 1016.54 1016.51 1016.38 1016.15 1015.86 1015.53 1015.20 1014.91
1009.10 1009.45 1009.72 1009.95 1010.21 1010.52 1010.90 1011.35 1011.85 1012.37 1012.88 1013.34 1013.76 1014.10 1014.39 1014.64 1014.85 1015.06 1015.26 1015.46 1015.64 1015.81 1015.95 1016.05 1016.10 1016.13 1016.14 1016.15 1016.18 1016.25 1016.37 1016.52 1016.70 1016.87 1017.00 1017.06 1017.03 1016.91 1016.68 1016.39 1016.05 1015.70 1015.37
1009.01 1009.40 1009.71 1010.00 1010.31 1010.70 1011.16 1011.69 1012.26 1012.85 1013.40 1013.90 1014.32 1014.65 1014.91 1015.12 1015.29 1015.46 1015.62 1015.80 1015.98 1016.15 1016.30 1016.42 1016.51 1016.56 1016.59 1016.61 1016.65 1016.71 1016.82 1016.95 1017.10 1017.25 1017.37 1017.43 1017.41 1017.29 1017.08 1016.80 1016.47 1016.12 1015.79
1008.95 1009.38 1009.74 1010.08 1010.44 1010.87 1011.38 1011.95 1012.57 1013.18 1013.76 1014.26 1014.68 1015.00 1015.24 1015.42 1015.57 1015.71 1015.86 1016.03 1016.21 1016.40 1016.58 1016.74 1016.86 1016.95 1017.00 1017.04 1017.08 1017.13 1017.20 1017.30 1017.41 1017.53 1017.61 1017.65 1017.63 1017.52 1017.33 1017.07 1016.77 1016.44 1016.13
1008.90 1009.39 1009.79 1010.17 1010.57 1011.03 1011.55 1012.14 1012.76 1013.37 1013.95 1014.45 1014.86 1015.17 1015.41 1015.58 1015.73 1015.87 1016.03 1016.21 1016.42 1016.65 1016.87 1017.07 1017.23 1017.35 1017.43 1017.48 1017.50 1017.53 1017.56 1017.61 1017.66 1017.72 1017.75 1017.76 1017.71 1017.60 1017.43 1017.20 1016.94 1016.65 1016.37
1008.85 1009.39 1009.84 1010.25 1010.67 1011.14 1011.66 1012.24 1012.84 1013.44 1013.99 1014.48 1014.89 1015.21 1015.45 1015.64 1015.81 1015.99 1016.18 1016.40 1016.66 1016.93 1017.20 1017.44 1017.65 1017.80 1017.90 1017.95 1017.96 1017.95 1017.93 1017.90 1017.88 1017.86 1017.83 1017.78 1017.70 1017.58 1017.42 1017.22 1016.99 1016.75 1016.51
1008.76 1009.36 1009.85 1010.30 1010.73 1011.20 1011.71 1012.25 1012.82 1013.38 1013.91 1014.39 1014.79 1015.13 1015.40 1015.63 1015.85 1016.07 1016.32 1016.60 1016.91 1017.23 1017.55 1017.84 1018.09 1018.27 1018.38 1018.43 1018.42 1018.37 1018.29 1018.19 1018.09 1017.98 1017.87 1017.76 1017.63 1017.48 1017.32 1017.14 1016.94 1016.74 1016.55
1008.66 1009.30 1009.83 1010.31 1010.76 1011.21 1011.69 1012.20 1012.73 1013.25 1013.75 1014.20 1014.61 1014.96 1015.27 1015.55 1015.82 1016.11 1016.42 1016.76 1017.12 1017.50 1017.87 1018.20 1018.48 1018.69 1018.82 1018.86 1018.84 1018.75 1018.61 1018.45 1018.27 1018.08 1017.90 1017.71 1017.53 1017.35 1017.17 1017.00 1016.83 1016.66 1016.50
1008.55 1009.24 1009.81 1010.31 1010.77 1011.21 1011.66 1012.13 1012.60 1013.08 1013.54 1013.97 1014.37 1014.73 1015.07 1015.40 1015.72 1016.07 1016.43 1016.83 1017.24 1017.66 1018.06 1018.43 1018.73 1018.96 1019.10 1019.15 1019.12 1019.01 1018.84 1018.63 1018.39 1018.14 1017.89 1017.65 1017.41 1017.20 1017.00 1016.83 1016.67 1016.52 1016.39
Thickness
5835 5833 5830 5826 5821 5816 5812 5809 5806 5804 5802 5799 5796 5794 5793 5794 5794 5793 5791 5789 5787 5786 5785 5783 5781 5780 5776 5775 5774 5772 5770 5769 5769 5764 5761 5764 5767 5766 5766 5765 5764 5763 5761
5834 5832 5829 5827 5822 5816 5813 5810 5806 5805 5803 5801 5799 5798 5797 5796 5795 5794 5792 5790 5788 5787 5786 5782 5781 5779 5776 5774 5773 5771 5768 5769 5769 5763 5756 5752 5755 5760 5765 5764 5762 5762 5760
5835 5831 5829 5826 5823 5818 5815 5813 5809 5807 5804 5803 5801 5800 5797 5795 5793 5791 5790 5790 5789 5788 5785 5783 5781 5779 5777 5774 5773 5772 5768 5765 5767 5768 5760 5751 5747 5752 5758 5761 5761 5759 5757
5843 5836 5832 5828 5825 5822 5820 5816 5811 5808 5806 5804 5801 5797 5792 5789 5790 5791 5790 5790 5789 5788 5786 5784 5781 5779 5777 5775 5773 5772 5771 5767 5764 5766 5766 5763 5759 5750 5747 5754 5758 5758 5756
5848 5841 5837 5833 5831 5828 5823 5818 5813 5808 5806 5804 5802 5798 5795 5793 5793 5792 5790 5789 5788 5787 5786 5784 5782 5779 5777 5775 5773 5772 5770 5769 5766 5764 5764 5762 5760 5758 5749 5744 5749 5753 5755
5852 5846 5842 5837 5833 5830 5826 5820 5813 5809 5807 5805 5802 5798 5795 5793 5791 5789 5787 5787 5787 5786 5785 5783 5781 5779 5777 5774 5773 5771 5769 5768 5766 5764 5763 5760 5756 5753 5751 5745 5745 5746 5750
5852 5846 5840 5835 5831 5829 5825 5821 5814 5809 5807 5805 5802 5800 5797 5794 5791 5789 5787 5786 5785 5784 5783 5783 5780 5778 5776 5774 5772 5770 5768 5766 5764 5762 5761 5760 5758 5757 5754 5748 5745 5744 5746
5853 5847 5843 5838 5833 5830 5826 5821 5815 5810 5808 5805 5802 5801 5798 5796 5793 5791 5789 5787 5785 5784 5783 5781 5779 5776 5775 5773 5771 5768 5767 5765 5762 5761 5760 5758 5757 5757 5754 5750 5744 5738 5739
5852 5848 5844 5839 5834 5830 5827 5823 5817 5812 5809 5806 5803 5800 5798 5795 5794 5792 5790 5788 5786 5785 5783 5780 5777 5775 5773 5771 5768 5765 5764 5763 5760 5758 5757 5755 5755 5754 5754 5751 5747 5737 5730
5851 5848 5844 5840 5837 5833 5829 5825 5820 5814 5810 5807 5804 5801 5798 5796 5794 5791 5788 5787 5785 5783 5780 5778 5775 5772 5770 5767 5765 5762 5761 5759 5757 5755 5753 5751 5751 5750 5749 5747 5745 5741 5735
5849 5846 5844 5841 5838 5834 5830 5824 5819 5814 5811 5808 5805 5802 5799 5796 5793 5790 5788 5786 5784 5781 5778 5776 5773 5770 5767 5765 5762 5759 5757 5754 5753 5751 5749 5747 5747 5744 5743 5742 5740 5738 5734
5849 5847 5844 5840 5836 5832 5828 5823 5819 5815 5811 5808 5805 5801 5798 5795 5792 5789 5787 5785 5782 5779 5777 5774 5771 5768 5765 5762 5759 5755 5753 5750 5748 5747 5745 5743 5743 5740 5738 5736 5734 5733 5731
5845 5844 5841 5837 5833 5830 5827 5823 5819 5815 5812 5808 5803 5799 5796 5793 5790 5787 5786 5783 5780 5777 5774 5771 5768 5765 5762 5759 5756 5753 5750 5748 5746 5744 5741 5739 5737 5734 5732 5730 5729 5727 5727
5838 5836 5833 5831 5829 5827 5824 5821 5817 5816 5812 5807 5802 5797 5794 5792 5789 5786 5784 5781 5778 5774 5771 5768 5766 5763 5759 5756 5753 5750 5747 5745 5743 5741 5738 5736 5733 5730 5727 5726 5723 5721 5719
5831 5829 5826 5824 5823 5821 5819 5818 5815 5813 5811 5805 5800 5796 5794 5791 5787 5783 5781 5778 5775 5773 5769 5766 5762 5759 5756 5753 5750 5747 5745 5741 5739 5737 5734 5731 5729 5725 5723 5720 5717 5715 5712
5824 5823 5821 5819 5817 5816 5814 5813 5811 5809 5807 5802 5798 5795 5791 5787 5783 5780 5777 5774 5771 5768 5765 5761 5758 5754 5752 5749 5746 5743 5740 5738 5735 5731 5729 5727 5724 5721 5718 5715 5713 5710 5707
5818 5816 5815 5814 5813 5812 5811 5808 5806 5805 5801 5797 5793 5790 5787 5782 5779 5777 5772 5768 5765 5762 5759 5756 5753 5749 5745 5743 5740 5737 5735 5733 5731 5727 5724 5722 5721 5717 5714 5711 5709 5706 5704
5813 5811 5811 5810 5810 5810 5808 5805 5802 5799 5795 5790 5787 5785 5781 5777 5774 5770 5766 5763 5760 5757 5754 5751 5748 5744 5740 5737 5734 5732 5731 5729 5727 5724 5721 5717 5714 5712 5708 5707 5705 5702 5701
5809 5807 5807 5806 5804 5803 5802 5799 5794 5791 5788 5784 5781 5779 5776 5771 5767 5763 5760 5757 5754 5751 5748 5746 5742 5738 5734 5731 5729 5726 5725 5723 5721 5719 5716 5713 5709 5706 5703 5700 5698 5697 5696
5803 5801 5801 5799 5796 5795 5795 5790 5786 5782 5779 5777 5775 5774 5771 5767 5762 5758 5755 5752 5749 5745 5742 5739 5737 5733 5729 5725 5723 5720 5720 5717 5715 5714 5711 5707 5704 5700 5698 5695 5692 5690 5690
5794 5793 5791 5789 5787 5787 5785 5781 5778 5775 5774 5773 5770 5767 5764 5761 5757 5753 5749 5745 5741 5738 5735 5732 5731 5728 5724 5720 5717 5714 5712 5711 5710 5708 5705 5703 5699 5695 5693 5690 5688 5686 5684
5784 5783 5780 5779 5778 5778 5775 5771 5769 5769 5767 5764 5761 5758 5756 5755 5751 5746 5741 5738 5735 5731 5727 5724 5722 5721 5718 5714 5711 5708 5705 5704 5703 5701 5700 5696 5692 5689 5686 5684 5683 5681 5678
5774 5774 5771 5768 5768 5768 5766 5761 5761 5761 5758 5754 5750 5749 5746 5744 5741 5737 5732 5729 5727 5724 5720 5717 5714 5712 5710 5707 5704 5701 5699 5697 5695 5694 5692 5688 5685 5682 5680 5678 5677 5674 5672
5764 5764 5761 5757 5756 5757 5756 5754 5752 5751 5747 5743 5741 5739 5736 5733 5731 5728 5725 5721 5717 5714 5712 5709 5707 5704 5702 5699 5697 5694 5691 5688 5686 5684 5683 5681 5678 5676 5674 5673 5671 5668 5666
5755 5754 5750 5747 5746 5745 5744 5745 5744 5741 5737 5734 5732 5729 5727 5724 5720 5717 5713 5711 5707 5704 5702 5701 5699 5696 5692 5689 5686 5684 5683 5681 5678 5676 5675 5674 5672 5669 5668 5667 5666 5664 5661
5744 5742 5740 5739 5737 5736 5735 5735 5734 5731 5727 5724 5722 5720 5718 5715 5712 5707 5703 5700 5698 5695 5692 5691 5690 5686 5684 5681 5679 5676 5674 5672 5670 5668 5667 5666 5665 5662 5660 5659 5657 5655 5653